Volver al catálogo

BREEZE-M R/B

ActivoMEO
NORAD 37807·ROCKET BODY·🇷🇺 Russia

Lanzado Sep 20, 2011 desde Baikonur Cosmodrome

Loading…

Próximos Pases (próximas 24 horas)

TLE

ActualizadoSource: Space-Track

Época: Sep 14, 2026, 13:24 UTC

1 37807U 11048B   26257.55854156 -.00000198  00000-0  00000+0 0  9998
2 37807  10.2260  41.9951 0228095  87.5877 287.9616  1.04264398 56552

Sigue BREEZE-M R/B en tiempo real con AllMySat

Download on the App Store